Starlink 30570

operational
NORAD ID: 58095 Int'l Des: 2023-160 Owner: SPXS Country: US Constellation: starlink
LEOCIRCULAR

About Starlink 30570

Description loading...

Live Position

Loading 3D Globe...

Upcoming Passes

Altitude History

Altitude vs Time

uPlot chart will show altitude changes over time

Two-Line Element Set

1 58095U 23160W 25305.99411711 .00000909 00000-0 82356-4 0 9993
2 58095 43.0030 53.7321 0001356 267.6469 92.4218 15.02537953113714
Epoch: Nov 1, 2025 • Age: 26 hours

Current Status

Altitude 562.1 km
Velocity 7.59 km/s
Sub-Earth Point 38.80°N, 39.15°E
Launch Date Oct 18, 2023
Age 2 years
Type internet

Technical Details

Classification Payload
Mass 730.00 kg
Dry Mass 700.00 kg
Total Mass 730.00 kg
Length 0.30 m
Diameter 4.10 m
Span 29.00 m
Shape Box + pan
Manufacturer SPXS
Bus Type Starlink V2M
Phase Status In Orbit
Owner/State SPXS/US

Large Constellations

Loading constellations...